TimeEST,TemperatureF,Dew PointF,Humidity,Sea Level PressureIn,VisibilityMPH,Wind Direction,Wind SpeedMPH,Gust SpeedMPH,PrecipitationIn,Events,Conditions,WindDirDegrees,DateUTC
12:05 AM,52.9,52.9,100,30.03,3.0,Calm,Calm,-,N/A,,Overcast,0,2012-12-09 05:05:00
12:25 AM,52.9,52.9,100,30.03,4.0,Calm,Calm,-,N/A,,Overcast,0,2012-12-09 05:25:00
12:45 AM,52.9,52.9,100,30.04,4.0,Calm,Calm,-,N/A,,Overcast,0,2012-12-09 05:45:00
1:05 AM,52.7,52.7,100,30.04,3.0,Calm,Calm,-,N/A,,Overcast,0,2012-12-09 06:05:00
1:50 AM,51.8,51.8,100,30.05,2.5,Calm,Calm,-,N/A,,Overcast,0,2012-12-09 06:50:00
2:10 AM,51.1,51.1,100,30.06,1.8,Calm,Calm,-,N/A,,Overcast,0,2012-12-09 07:10:00
2:55 AM,51.6,51.6,100,30.06,2.0,Calm,Calm,-,N/A,,Overcast,0,2012-12-09 07:55:00
3:15 AM,52.3,52.3,100,30.07,2.5,Calm,Calm,-,N/A,,Overcast,0,2012-12-09 08:15:00
3:35 AM,52.2,52.2,100,30.06,2.0,Calm,Calm,-,N/A,,Overcast,0,2012-12-09 08:35:00
4:00 AM,52.2,52.2,100,30.06,2.5,Calm,Calm,-,N/A,,Overcast,0,2012-12-09 09:00:00
4:20 AM,52.0,52.0,100,30.07,4.0,Calm,Calm,-,N/A,,Overcast,0,2012-12-09 09:20:00
4:40 AM,52.0,52.0,100,30.07,4.0,Calm,Calm,-,N/A,,Overcast,0,2012-12-09 09:40:00
5:00 AM,52.0,52.0,100,30.09,4.0,Calm,Calm,-,N/A,,Overcast,0,2012-12-09 10:00:00
5:25 AM,52.0,52.0,100,30.10,3.0,North,3.5,-,N/A,,Overcast,350,2012-12-09 10:25:00
5:45 AM,52.0,52.0,100,30.11,3.0,Calm,Calm,-,N/A,,Overcast,0,2012-12-09 10:45:00
6:25 AM,52.0,52.0,100,30.13,2.0,Calm,Calm,-,N/A,,Overcast,0,2012-12-09 11:25:00
6:50 AM,52.2,52.2,100,30.12,2.5,NNE,3.5,-,N/A,,Overcast,30,2012-12-09 11:50:00
7:10 AM,52.3,52.3,100,30.14,3.0,NNE,4.6,-,N/A,,Overcast,30,2012-12-09 12:10:00
7:30 AM,52.7,52.7,100,30.15,3.0,NNE,3.5,-,N/A,,Overcast,20,2012-12-09 12:30:00
7:50 AM,52.7,52.7,100,30.17,3.0,Calm,Calm,-,N/A,,Overcast,0,2012-12-09 12:50:00
8:15 AM,52.7,52.7,100,30.16,3.0,NE,3.5,-,N/A,,Overcast,50,2012-12-09 13:15:00
8:35 AM,52.7,52.7,100,30.17,3.0,NNE,5.8,-,N/A,,Overcast,20,2012-12-09 13:35:00
8:55 AM,52.7,52.7,100,30.17,4.0,NNE,5.8,-,N/A,,Overcast,30,2012-12-09 13:55:00
9:15 AM,52.7,52.3,99,30.18,4.0,ENE,6.9,-,N/A,,Overcast,60,2012-12-09 14:15:00
9:40 AM,52.7,52.0,97,30.18,5.0,ENE,6.9,-,N/A,,Overcast,70,2012-12-09 14:40:00
10:00 AM,53.1,51.8,95,30.18,5.0,ENE,6.9,-,N/A,,Overcast,60,2012-12-09 15:00:00
10:20 AM,52.9,51.3,94,30.19,5.0,ENE,6.9,-,N/A,,Overcast,70,2012-12-09 15:20:00
10:40 AM,52.5,50.9,94,30.18,7.0,NE,5.8,-,N/A,,Overcast,50,2012-12-09 15:40:00
11:05 AM,52.2,50.5,94,30.17,7.0,ENE,6.9,-,N/A,,Overcast,70,2012-12-09 16:05:00
11:25 AM,52.0,50.2,94,30.17,7.0,NE,6.9,-,N/A,,Overcast,40,2012-12-09 16:25:00
11:45 AM,51.6,49.8,94,30.16,7.0,ENE,6.9,-,N/A,,Overcast,70,2012-12-09 16:45:00
12:05 PM,51.4,49.6,94,30.16,7.0,NE,4.6,-,N/A,,Overcast,50,2012-12-09 17:05:00
12:30 PM,50.9,49.1,94,30.15,7.0,NE,4.6,-,N/A,,Overcast,50,2012-12-09 17:30:00
12:50 PM,50.9,48.7,92,30.15,10.0,NE,4.6,-,N/A,,Overcast,50,2012-12-09 17:50:00
1:10 PM,50.5,48.6,93,30.15,7.0,NNE,3.5,-,N/A,,Overcast,30,2012-12-09 18:10:00
1:30 PM,50.2,48.6,94,30.14,5.0,NE,4.6,-,N/A,,Overcast,40,2012-12-09 18:30:00
2:35 PM,50.0,49.6,99,30.13,2.0,ENE,4.6,-,N/A,,Overcast,60,2012-12-09 19:35:00
2:55 PM,49.6,49.6,100,30.13,2.0,Calm,Calm,-,N/A,,Overcast,0,2012-12-09 19:55:00
3:20 PM,49.5,49.5,100,30.14,3.0,North,3.5,-,N/A,,Overcast,10,2012-12-09 20:20:00
3:40 PM,49.5,49.5,100,30.14,2.5,NNE,5.8,-,N/A,,Overcast,30,2012-12-09 20:40:00
4:00 PM,49.3,49.3,100,30.13,1.8,Calm,Calm,-,N/A,,Overcast,0,2012-12-09 21:00:00
4:20 PM,49.3,49.3,100,30.12,2.0,Calm,Calm,-,N/A,,Overcast,0,2012-12-09 21:20:00
4:45 PM,49.3,49.3,100,30.12,2.0,ENE,3.5,-,N/A,,Overcast,60,2012-12-09 21:45:00
5:05 PM,49.3,49.3,100,30.11,3.0,Calm,Calm,-,N/A,,Overcast,0,2012-12-09 22:05:00
5:25 PM,49.3,49.3,100,30.11,2.5,Calm,Calm,-,N/A,,Overcast,0,2012-12-09 22:25:00
5:45 PM,49.5,49.5,100,30.11,2.5,Calm,Calm,-,N/A,,Overcast,0,2012-12-09 22:45:00
6:05 PM,49.5,49.5,100,30.11,2.5,Calm,Calm,-,N/A,,Overcast,0,2012-12-09 23:05:00
6:30 PM,49.5,49.5,100,30.11,2.5,Calm,Calm,-,N/A,,Overcast,0,2012-12-09 23:30:00
6:50 PM,49.6,49.6,100,30.09,2.0,Calm,Calm,-,N/A,,Overcast,0,2012-12-09 23:50:00
7:10 PM,49.6,49.6,100,30.09,2.0,Calm,Calm,-,N/A,,Overcast,0,2012-12-10 00:10:00
7:35 PM,49.6,49.6,100,30.10,2.5,Calm,Calm,-,N/A,,Overcast,0,2012-12-10 00:35:00
7:55 PM,49.8,49.8,100,30.09,4.0,Calm,Calm,-,N/A,,Overcast,0,2012-12-10 00:55:00
8:15 PM,49.6,49.6,100,30.08,3.0,Calm,Calm,-,N/A,,Overcast,0,2012-12-10 01:15:00
8:35 PM,49.6,49.6,100,30.08,4.0,Calm,Calm,-,N/A,,Overcast,0,2012-12-10 01:35:00
9:00 PM,49.5,49.5,100,30.06,4.0,Calm,Calm,-,N/A,,Overcast,0,2012-12-10 02:00:00
9:20 PM,49.5,49.5,100,30.06,5.0,Calm,Calm,-,N/A,,Overcast,0,2012-12-10 02:20:00
9:40 PM,49.5,49.5,100,30.04,5.0,Calm,Calm,-,N/A,,Overcast,0,2012-12-10 02:40:00
10:00 PM,49.6,49.6,100,30.03,5.0,Calm,Calm,-,N/A,,Overcast,0,2012-12-10 03:00:00
10:25 PM,49.5,49.5,100,30.03,4.0,Calm,Calm,-,N/A,,Overcast,0,2012-12-10 03:25:00
10:45 PM,49.6,49.6,100,30.03,3.0,Calm,Calm,-,N/A,,Overcast,0,2012-12-10 03:45:00
11:05 PM,49.6,49.6,100,30.02,2.5,Calm,Calm,-,N/A,,Overcast,0,2012-12-10 04:05:00
11:25 PM,49.6,49.6,100,30.01,1.5,Calm,Calm,-,N/A,,Overcast,0,2012-12-10 04:25:00
11:50 PM,49.6,49.6,100,29.99,0.8,Calm,Calm,-,N/A,,Overcast,0,2012-12-10 04:50:00